Location: Zagreb
(45.8000°N, 16.0000°E)
Time: 15:42:23
(UTC+02:00)

Vanguard 1 - Pass Details

Date: 10 August 2022
Orbit: 649 x 3832 km, 34.2° (Epoch: 25 September)

Event Time Altitude Azimuth Distance (km) Brightness Sun altitude
Rises 12:51:36 0° 282° (WNW) 7,972 14.6 59.6°
Reaches altitude 10° 12:59:28 10° 269° (W) 6,890 14.5 59.7°
Maximum altitude 13:12:53 20° 232° (SW) 5,520 14.5 59.6°
Drops below altitude 10° 13:23:54 10° 193° (SSW) 5,497 14.6 59.3°
Sets 13:29:12 0° 177° (S) 5,975 14.5 59.1°
